map of NOU home
NOU - Airport
Location
City:  Nouméa, New Caledonia
Name:La Tontouta International Airport
ICAO:NWWW
IATA:NOU

Details
Type:Airport (Aerodrome, Airfield)
Use:International (customs port of entry)
Latitude:22°00'59"S (-22.016388)
Longitude:166°12'58"E (166.216111)
Elevation:52 ft (16 m)
Variation:12.36°E (WMM2015 magnetic declination)
0.03° annual change
Runways:3
Longest:10663 × 148 ft (3250 × 45 m), paved

Time
Time Zone:UTC+11
Local Time:

Weather
METAR:NWWW 172130Z AUTO 12006KT 070V180 9999 FEW035 25/15 Q1012 NOSIG
TAF:NWWW 171700Z 1718/1818 13006KT 9999 SCT065
BECMG 1722/1801 19012KT PROB30
TEMPO 1803/1806 SHRA FEW030TCU

Related Locations
Nearby:
Farthest:FGD: 12360 mi / 19891 km
Fderik, MR

Find:

   beyond  
but within

Other Information
Maps:
NOTAMs:
Links:
Sources:

  
  • flag of New Caledonia
  

Sectional Chart

Flight Planning
at skyvector.com

Satellite Image

Google Maps Satellite view

 

Copyright © 2004-2018 Karl L. Swartz. All rights reserved.
The Great Circle Mapper name and logo are trademarks of the Great Circle Mapper.
All other trademarks mentioned herein belong to their respective owners.
Please see credits for attibutions and further copyright information.

  Follow gcmap on Facebook Follow gcmap on Twitter Follow gcmap on Google+ GCmap on LinkedIn

hCard Microformat

Geo Microformat